[[{"header":{"parameterUnit":"m.s-1","parameterCategory":1,"la1":30.2991,"la2":30.254,"lo1":-89.0895,"lo2":-89.0444,"dy":0.0017,"dx":0.0017,"nx":28,"ny":28,"refTime":"2025-01-30T03:00:00:Z","depth":0,"parameterNumber":2,"parameterNumberName":"U-component_of_WINDS"},"data":[0,0,0,0,0,0,0,0,0,0,0,0,0,0,0,0,0,0,0,0,0,0,0,0,0,0,0,0,0,0,0,0,0,0,0,0,0,0,0,0,0,0,0,0,0,0,0,0,0,0,0,0,0,0,0,0,0,0,-4.0532,-4.0533,0,-4.0609,-4.0609,-4.061,-4.0595,-4.0594,-4.0592,-4.0591,-4.0669,-4.0672,-4.0675,0,0,0,0,0,0,0,0,0,0,0,0,0,-4.0372,-4.0375,-4.0532,-4.0533,-4.0534,-4.0608,-4.0609,-4.0611,-4.0595,-4.0594,-4.0592,-4.059,-4.0668,-4.0672,-4.0676,0,0,0,0,0,0,0,0,0,0,0,0,0,-4.0445,-4.0376,-4.0532,-4.0535,-4.0536,-4.0608,-4.061,-4.0611,-4.0596,-4.0594,-4.0591,-4.059,-4.0666,-4.0671,-4.0676,-4.0749,0,0,-4.0692,-4.0694,0,0,0,0,0,0,0,0,-4.044,-4.045,-4.0534,-4.0535,-4.0536,-4.059,-4.0582,-4.0657,-4.0596,-4.0573,-4.0591,-4.0589,-4.0644,-4.0651,-4.067,-4.0753,-4.0756,-4.0692,-4.0695,-4.0697,-4.0699,0,0,0,0,0,0,0,-4.0435,-4.0447,-4.0562,-4.0535,-4.0537,-4.0533,-4.0541,-4.0596,-4.0619,-4.0575,-4.0574,-4.0583,-4.0645,-4.0665,-4.0672,-4.0757,-4.0692,-4.0696,-4.07,-4.0702,-4.0904,-4.0906,0,0,0,0,0,0,-4.0429,-4.0443,-4.056,-4.0564,-4.0482,-4.0538,-4.0546,-4.0575,-4.0619,-4.0623,-4.0585,-4.0582,-4.0657,-4.0666,-4.0674,-4.0762,-4.0697,-4.0702,-4.0705,-4.0902,-4.0905,-4.0907,0,0,0,0,0,0,-4.0426,-4.044,-4.0557,-4.0504,-4.0518,-4.0543,-4.0575,-4.0578,-4.0598,-4.0626,-4.063,-4.0602,-4.0656,-4.0667,-4.0731,-4.0764,-4.0704,-4.0709,-4.0899,-4.0903,-4.0906,-4.0938,0,0,0,0,0,0,-4.0421,-4.0439,-4.0467,-4.0504,-4.0521,-4.0612,-4.0577,-4.0581,-4.0607,-4.0604,-4.0643,-4.0648,-4.0655,-4.0723,-4.0736,-4.077,-4.0713,-4.0896,-4.0901,-4.0905,-4.0934,-4.0942,-4.095,0,0,0,0,0,-4.0416,-4.0472,-4.0468,-4.0482,-4.0556,-4.0614,-4.0623,-4.0631,-4.061,-4.0638,-4.0656,-4.0646,-4.0759,-4.073,-4.0744,-4.078,-4.0894,-4.0899,-4.0904,-4.0931,-4.0941,-4.0949,0,0,0,0,0,0,-4.0437,-4.0477,-4.0473,-4.0544,-4.0575,-4.0611,-4.0646,-4.0642,-4.068,-4.0676,-4.0684,-4.0693,-4.0758,-4.0776,-4.0742,-4.0854,-4.0823,-4.0832,-4.0839,-4.0849,-4.0856,-4.0849,-4.0717,0,0,0,0,0,-4.0451,-4.0494,-4.0527,-4.0586,-4.0602,-4.0622,-4.0647,-4.0651,-4.0684,-4.0697,-4.072,-4.0753,-4.0796,-4.0823,-4.0864,-4.0938,-4.0946,-4.097,-4.0978,-4.0984,-4.099,-4.103,-4.1041,-4.0924,-4.0924,-4.0924,0,0,-4.0478,-4.0505,-4.0532,-4.0591,-4.0616,-4.066,-4.0633,-4.0681,-4.0714,-4.0704,-4.0765,-4.0784,-4.0821,-4.0889,-4.0921,-4.0906,-4.1024,-4.099,-4.0995,-4.0998,-4.1036,-4.1047,-4.1057,-4.0928,-4.0927,-4.0927,0,0,-4.055,-4.0575,-4.0627,-4.0653,-4.0692,-4.0705,-4.0717,-4.0754,-4.0766,-4.0828,-4.0821,-4.0861,-4.0935,-4.0961,-4.0984,-4.1068,-4.106,-4.1082,-4.1121,-4.1159,-4.1168,-4.1177,-4.1205,-4.1216,-4.1089,-4.1089,-4.1089,0,-4.0578,-4.0645,-4.0654,-4.0703,-4.0729,-4.0724,-4.0776,-4.0801,-4.0851,-4.0869,-4.0853,-4.0945,-4.097,-4.1044,-4.1065,-4.1084,-4.1099,-4.1076,-4.1167,-4.1175,-4.1182,-4.121,-4.1221,-4.1091,-4.1091,-4.109,-4.109,0,-4.0678,-4.0725,-4.0762,-4.0811,-4.0841,-4.0892,-4.0909,-4.0939,-4.094,-4.0955,-4.1018,-4.1048,-4.1095,-4.1113,-4.1115,-4.1188,-4.1178,-4.1165,-4.1134,-4.1196,-4.1222,-4.1232,-4.1094,-4.1093,-4.1093,-4.1092,0,0,-4.0763,-4.0818,-4.0831,-4.0853,-4.0896,-4.0932,-4.0983,-4.1029,-4.1055,-4.109,-4.1132,-4.1196,-4.1183,-4.121,-4.1215,-4.1249,-4.1313,-4.1231,-4.1232,-4.1244,-4.1394,-4.1403,-4.1415,-4.1309,-4.1311,-4.1313,-4.1391,0,-4.0838,-4.0927,-4.0937,-4.1017,-4.106,-4.1056,-4.11,-4.1131,-4.1147,-4.1186,-4.1204,-4.1248,-4.1229,-4.1245,-4.1279,-4.1298,-4.1343,-4.1293,-4.1347,-4.1349,-4.1336,-4.1429,-4.1438,-4.151,-4.1401,-4.1403,-4.1404,0,-4.0936,-4.0975,-4.1058,-4.1096,-4.1114,-4.1154,-4.1197,-4.1235,-4.1271,-4.128,-4.131,-4.1311,-4.1364,-4.1333,-4.1405,-4.1371,-4.1394,-4.1407,-4.141,-4.1414,-4.1379,-4.1433,-4.1534,-4.1544,-4.142,-4.1419,-4.1418,0,-4.0988,-4.1061,-4.1121,-4.114,-4.1186,-4.1213,-4.1234,-4.1268,-4.1295,-4.1333,-4.1351,-4.1395,-4.1419,-4.1453,-4.1466,-4.1443,-4.1537,-4.1508,-4.1546,-4.1545,-4.1564,-4.1562,-4.1667,-4.1582,-4.1582,-4.1582,-4.1582,0,-4.1069,-4.112,-4.1145,-4.1181,-4.1238,-4.125,-4.1307,-4.1326,-4.1356,-4.1396,-4.1396,-4.1434,-4.145,-4.149,-4.1501,-4.1558,-4.157,-4.1578,-4.158,-4.1577,-4.1576,-4.1591,-4.1585,-4.1585,-4.1584,-4.1583,-4.1583,0,-4.1136,-4.1155,-4.1219,-4.1257,-4.1268,-4.1309,-4.1342,-4.1377,-4.1393,-4.1444,-4.1456,-4.1481,-4.1529,-4.1546,-4.1604,-4.1611,-4.1677,-4.1676,-4.1665,-4.1665,-4.1701,-4.1697,-4.1818,-4.1834,-4.174,-4.1741,-4.1742,0,-4.1185,-4.1225,-4.1268,-4.1295,-4.1316,-4.1359,-4.1387,-4.1402,-4.1431,-4.1475,-4.1505,-4.1553,-4.1591,-4.1667,-4.169,-4.1734,-4.1733,-4.1773,-4.1739,-4.1735,-4.1732,-4.1728,-4.1732,-4.1778,-4.1779,-4.178,-4.178,0,-4.1271,-4.1278,-4.1319,-4.1363,-4.1397,-4.1432,-4.1466,-4.1489,-4.1508,-4.1541,-4.1589,-4.1619,-4.1679,-4.1725,-4.1771,-4.1792,-4.1789,-4.1791,-4.1802,-4.1798,-4.1789,-4.1793,-4.168,-4.1788,-4.1787,-4.1786,-4.1786,-4.1786,-4.1329,-4.1364,-4.14,-4.1445,-4.1472,-4.1505,-4.154,-4.1561,-4.1602,-4.1651,-4.1657,-4.1709,-4.1745,-4.1806,-4.1829,-4.187,-4.1859,-4.1875,-4.1879,-4.1882,-4.1884,-4.1785,-4.1879,-4.1879,-4.1879,-4.1878,-4.1878,0,-4.1413,-4.1436,-4.1478,-4.1526,-4.1562,-4.1558,-4.1596,-4.1626,-4.1672,-4.1706,-4.1744,-4.18,-4.1845,-4.1873,-4.1919,-4.1947,-4.1947,-4.1958,-4.1955,-4.196,-4.1892,-4.1877,-4.1957,-4.1957,-4.1957,-4.1957,-4.1957,-4.1957,-4.1461,-4.1519,-4.1531,-4.1603,-4.1626,-4.1677,-4.1699,-4.1729,-4.1756,-4.1818,-4.1856,-4.1875,-4.1906,-4.1954,-4.1996,-4.2003,-4.2019,-4.2032,-4.2038,-4.1973,-4.1965,-4.1957,-4.1943,-4.2036,-4.2036,-4.2102,-4.2103,-4.2103]},{"header":{"parameterUnit":"m.s-1","parameterCategory":1,"la1":30.2991,"la2":30.254,"lo1":-89.0895,"lo2":-89.0444,"dy":0.0017,"dx":0.0017,"nx":28,"ny":28,"refTime":"2025-01-30T03:00:00:Z","depth":0,"parameterNumber":3,"parameterNumberName":"V-component_of_WINDS"},"data":[0,0,0,0,0,0,0,0,0,0,0,0,0,0,0,0,0,0,0,0,0,0,0,0,0,0,0,0,0,0,0,0,0,0,0,0,0,0,0,0,0,0,0,0,0,0,0,0,0,0,0,0,0,0,0,0,0,0,3.6754,3.6755,0,3.6811,3.6812,3.6813,3.6829,3.6828,3.6828,3.6828,3.6883,3.6885,3.6887,0,0,0,0,0,0,0,0,0,0,0,0,0,3.666,3.6662,3.6754,3.6755,3.6756,3.6811,3.6812,3.6813,3.6829,3.6828,3.6828,3.6828,3.6883,3.6885,3.6887,0,0,0,0,0,0,0,0,0,0,0,0,0,3.6707,3.6662,3.6754,3.677,3.6773,3.6811,3.6812,3.6813,3.6829,3.6828,3.6828,3.6827,3.6882,3.6885,3.6887,3.6913,0,0,3.6895,3.6896,0,0,0,0,0,0,0,0,3.6704,3.6711,3.6767,3.6769,3.6772,3.6812,3.6799,3.6846,3.6829,3.6807,3.6828,3.6827,3.686,3.6864,3.6876,3.6915,3.6918,3.6896,3.6897,3.6898,3.6899,0,0,0,0,0,0,0,3.6701,3.6708,3.6777,3.6768,3.6771,3.6775,3.6781,3.6808,3.6835,3.6809,3.681,3.6817,3.6861,3.6873,3.6877,3.6919,3.6895,3.6898,3.6899,3.6901,3.6987,3.6987,0,0,0,0,0,0,3.6695,3.6705,3.6775,3.6779,3.6736,3.6777,3.6784,3.68,3.6835,3.684,3.6817,3.6818,3.6869,3.6874,3.6879,3.6915,3.6898,3.6901,3.6902,3.6986,3.6987,3.6987,0,0,0,0,0,0,3.6693,3.6701,3.6773,3.6742,3.6752,3.6779,3.6797,3.6801,3.6814,3.6842,3.6846,3.6825,3.6869,3.6876,3.6906,3.6917,3.6902,3.6904,3.6985,3.6986,3.6987,3.6984,0,0,0,0,0,0,3.669,3.67,3.671,3.6743,3.6753,3.6798,3.6797,3.6803,3.6818,3.6819,3.685,3.6855,3.6869,3.6902,3.6908,3.692,3.6906,3.6984,3.6985,3.6987,3.6983,3.6985,3.6986,0,0,0,0,0,3.6687,3.6705,3.6711,3.6719,3.6766,3.6798,3.6805,3.6822,3.6819,3.683,3.6848,3.6854,3.6914,3.6904,3.6912,3.6925,3.6983,3.6985,3.6987,3.6982,3.6984,3.6986,0,0,0,0,0,0,3.6672,3.671,3.6716,3.6745,3.6769,3.6801,3.6814,3.6822,3.6846,3.6846,3.6865,3.6872,3.6901,3.6916,3.6904,3.6954,3.6949,3.6952,3.6943,3.6945,3.6947,3.6943,3.6909,0,0,0,0,0,3.6672,3.6695,3.6727,3.675,3.6762,3.6786,3.6801,3.6813,3.6837,3.6847,3.6867,3.689,3.6915,3.6931,3.6955,3.6985,3.6994,3.6998,3.7,3.7001,3.7003,3.7024,3.7027,3.6993,3.6993,3.6992,0,0,3.6672,3.6696,3.6709,3.6748,3.6767,3.6792,3.6794,3.6819,3.6838,3.685,3.6881,3.6897,3.6924,3.6956,3.697,3.6969,3.7015,3.7003,3.7003,3.7006,3.7026,3.7029,3.7032,3.6994,3.6993,3.6993,0,0,3.6686,3.6705,3.6728,3.6749,3.6779,3.6796,3.6802,3.6834,3.6846,3.6877,3.6888,3.691,3.6952,3.6972,3.6988,3.7014,3.702,3.7021,3.7028,3.7048,3.7051,3.7054,3.7066,3.7069,3.7023,3.7023,3.7023,0,3.6682,3.6719,3.6739,3.6765,3.6782,3.6797,3.6822,3.684,3.6876,3.6889,3.6886,3.6942,3.6961,3.6999,3.7006,3.7017,3.7025,3.7017,3.7049,3.7052,3.7055,3.7066,3.7071,3.7023,3.7023,3.7023,3.7023,0,3.6715,3.6741,3.6756,3.6793,3.6813,3.6837,3.6862,3.6879,3.689,3.6907,3.6941,3.6965,3.6996,3.7005,3.7015,3.7046,3.7045,3.7045,3.7041,3.7058,3.7069,3.7074,3.7023,3.7023,3.7023,3.7023,0,0,3.6718,3.6769,3.6774,3.6793,3.683,3.685,3.6877,3.6909,3.6925,3.695,3.6974,3.7011,3.7013,3.7031,3.7043,3.7061,3.7084,3.706,3.7061,3.7066,3.7123,3.7123,3.7128,3.7088,3.7089,3.709,3.7122,0,3.6738,3.6787,3.6807,3.6847,3.6873,3.6889,3.6913,3.6938,3.6956,3.6981,3.7,3.7027,3.7027,3.7038,3.7056,3.7077,3.7096,3.7075,3.7112,3.7113,3.7106,3.7133,3.7133,3.7161,3.7126,3.7127,3.7127,0,3.6766,3.6795,3.6838,3.6875,3.6887,3.6908,3.6941,3.6964,3.6995,3.7006,3.7029,3.7041,3.7071,3.7065,3.7108,3.7093,3.711,3.7123,3.7124,3.7129,3.7122,3.7141,3.717,3.7176,3.7134,3.7133,3.7133,0,3.6767,3.6816,3.6849,3.6865,3.6908,3.6923,3.6942,3.6972,3.6991,3.702,3.7034,3.7065,3.7082,3.7106,3.7128,3.7121,3.7169,3.7164,3.7181,3.7181,3.7191,3.719,3.7226,3.7199,3.7199,3.7199,3.7199,0,3.6787,3.6814,3.6851,3.6871,3.6903,3.6926,3.6956,3.6976,3.7003,3.7029,3.7044,3.7067,3.7093,3.7121,3.7137,3.7172,3.7179,3.719,3.7195,3.719,3.7189,3.7202,3.7201,3.72,3.72,3.72,3.7199,0,3.6793,3.6819,3.6857,3.6897,3.6908,3.6929,3.6963,3.6985,3.7005,3.7037,3.7046,3.7077,3.711,3.7134,3.7175,3.7187,3.7225,3.7228,3.7216,3.7218,3.7235,3.7234,3.7281,3.729,3.7255,3.7256,3.7256,0,3.6805,3.6826,3.687,3.6889,3.6909,3.6938,3.696,3.6985,3.7006,3.7045,3.7062,3.7097,3.7126,3.7179,3.7205,3.7238,3.7244,3.7258,3.7248,3.7245,3.7247,3.7246,3.725,3.7259,3.726,3.726,3.726,0,3.6824,3.6837,3.6867,3.6903,3.6929,3.6958,3.6987,3.7001,3.7032,3.7056,3.7091,3.7114,3.716,3.7195,3.7232,3.7251,3.7262,3.7263,3.7269,3.7265,3.7258,3.7265,3.7222,3.7262,3.7262,3.7261,3.7261,3.7261,3.6834,3.6856,3.6891,3.6925,3.6951,3.6979,3.7003,3.7027,3.7058,3.7098,3.7111,3.7148,3.7182,3.7233,3.7253,3.7283,3.7283,3.7291,3.7293,3.7295,3.7297,3.7253,3.729,3.729,3.729,3.729,3.729,0,3.6856,3.6881,3.6912,3.6955,3.6983,3.6992,3.7026,3.7049,3.7082,3.7113,3.7143,3.7186,3.7221,3.7252,3.7289,3.7308,3.7314,3.7317,3.7316,3.7322,3.7294,3.7286,3.7312,3.7312,3.7312,3.7312,3.7312,3.7312,3.6871,3.6909,3.6927,3.6978,3.7003,3.7041,3.706,3.7087,3.7113,3.7161,3.7191,3.7212,3.7244,3.7284,3.7318,3.7326,3.734,3.7342,3.7352,3.7325,3.7323,3.732,3.7313,3.7344,3.7344,3.7377,3.7377,3.7378]}]]